Meteo Giornale » Osservazioni meteo Repubblica Ceca » Praha-Ruzyne

ore: 10:30 - Osservazioni Meteo Praha-Ruzyne
Lat. 50° 6' N Lon. 14° 15' E Alt. 365 metri s.l.m.

foschia Europe/Prague

2 °C

Foschia Banco di Nebbia

Temp. 24 Ore

-2 °C

4 °C

Nord-Est

11.1 Km/h

Dew point 1 °C

Umidità 93 %

Visibilità  0.9 Km

Il sole sorge alle ore 07:12

Il sole tramonta alle ore 16:21

Data e Ora Cielo e Fenomeni T °C DP °C Um. % Pres. hPa Vis. km Vento km/h
Oggi h: 10:30 foschia Foschia Banco di Nebbia 2 1 93 1009 0.9 NE 11.1
Oggi h: 10:18 foschia Foschia Banco di Nebbia 2 2 100 1009 0.5 NE 11.1
Oggi h: 10:00 nebbia Banco di Nebbia 1 1 100 1009 0.2 E 9.3
Oggi h: 09:52 foschia Foschia Banco di Nebbia 1 1 100 1009 0.2 E 7.4
Oggi h: 09:47 foschia Foschia Banco di Nebbia 1 0 93 1009 0.2 E 7.4
Oggi h: 09:46 nebbia NebbiaParziale 0 -0 100 1009 0.2 N 5.5
Oggi h: 09:35 nebbia Nebbia Congelantesi -0 -1 92 1009 0.25 N 5.5
Oggi h: 09:31 nebbia Nebbia Congelantesi -0 -1 92 1009 0.25 N 5.5
Oggi h: 09:30 nebbia Nebbia Congelantesi -0 -1 92 1009 0.2 E 7.4
Oggi h: 09:00 nebbia Nebbia Congelantesi -0 -1 92 1009 0.2 E/SE 9.3
Oggi h: 08:52 nebbia Nebbia Congelantesi -0 -1 92 1009 0.2 E/SE 11.1
Oggi h: 08:30 nebbia Nebbia Congelantesi -1 -1 100 1008 0.2 E 11.1
Oggi h: 08:20 nebbia Nebbia Congelantesi -1 -1 100 1008 0.2 E 13
Oggi h: 08:00 nebbia Nebbia Congelantesi -2 -2 100 1008 0.25 E 11.1
Oggi h: 07:47 nebbia NebbiaParziale -2 -3 92 1008 0.25 E 9.3
Oggi h: 07:46 foschia Foschia Banco di Nebbia -2 -3 92 1008 0.25 E 9.3
Oggi h: 07:35 foschia Foschia Banco di Nebbia -2 -2 100 1008 0.4 E 11.1
Oggi h: 07:32 foschia Foschia Banco di Nebbia -2 -2 100 1008 1 E 11.1
Oggi h: 07:30 foschia Foschia -2 -3 92 1008 4 E/SE 11.1
Oggi h: 07:00 sereno Sereno -2 -3 92 1007 7 SE 7.4
Oggi h: 06:30 sereno Sereno -2 -2 100 1007 10 SE 9.3
Oggi h: 06:00 sereno Sereno -0 -1 92 1007 10 S/SE 7.4
Oggi h: 05:30 sereno Sereno -0 -1 92 1007 10 S/SO 11.1
Oggi h: 05:00 sereno Sereno -0 -1 92 1007 10 S 13
Oggi h: 04:30 sereno Sereno -0 -1 92 1006 9 SE 11.1
Oggi h: 04:00 sereno Sereno 0 -1 92 1006 10 SE 11.1
Oggi h: 03:30 sereno Sereno 0 -1 92 1006 10 S 14.8
Oggi h: 03:00 sereno Sereno 1 -0 93 1006 10 S/SO 14.8
Oggi h: 02:30 sereno Sereno 1 0 93 1007 10 S 14.8
Oggi h: 02:00 poco_nuvoloso Poco Nuvoloso 1 0 93 1007 10 S 14.8
Oggi h: 01:30 poco_nuvoloso Poco Nuvoloso 2 1 93 1006 10 S/SE 11.1
Oggi h: 01:00 poco_nuvoloso Poco Nuvoloso 2 1 93 1006 10 S 11.1
Oggi h: 00:30 nuvoloso Nuvoloso 2 1 93 1006 10 S/SO 11.1
Oggi h: 00:00 poco_nuvoloso Poco Nuvoloso 2 1 93 1006 10 N 5.5
Ieri h: 23:30 nuvoloso Nuvoloso 2 1 93 1006 10 S/SO 9.3
Ieri h: 23:00 sereno Sereno 2 1 93 1006 10 S/SO 13
Ieri h: 22:30 sereno Sereno 2 1 93 1006 10 S/SO 11.1
Ieri h: 22:00 poco_nuvoloso Poco Nuvoloso 2 1 93 1006 10 SO 13
Ieri h: 21:34 nuvoloso Nuvoloso 2 1 93 1005 10 SO 14.8
Ieri h: 21:30 molto_nuvoloso Molto Nuvoloso 2 1 93 1005 10 SO 16.7
Ieri h: 21:10 molto_nuvoloso Molto Nuvoloso 2 1 93 1005 10 S/SO 20.3
Ieri h: 21:00 nuvoloso Nuvoloso 2 1 93 1005 10 SO 18.5
Ieri h: 20:30 poco_nuvoloso Poco Nuvoloso 2 1 93 1005 10 S/SO 14.8
Ieri h: 20:06 nuvoloso Nuvoloso 2 2 100 1005 10 S/SO 16.7
Ieri h: 20:00 molto_nuvoloso Molto Nuvoloso 2 2 100 1005 10 S/SO 16.7
Ieri h: 19:50 molto_nuvoloso Molto Nuvoloso 2 2 100 1005 10 S/SO 16.7
Ieri h: 19:30 coperto_pioggia Pioggia Debole 3 2 93 1004 10 S/SO 11.1
Ieri h: 19:07 coperto_pioggia Pioggia Debole 3 2 93 1004 10 S/SO 13
Ieri h: 19:00 coperto Coperto 3 2 93 1004 10 S/SO 13
Ieri h: 18:30 coperto_pioggia Pioggia Debole 3 2 93 1004 10 N 11.1
Ieri h: 18:00 coperto_pioggia Pioggia Debole 3 2 93 1004 10 O/SO 9.3
Ieri h: 17:30 coperto_pioggia Pioggia Debole 3 2 93 1004 10 O 9.3
Ieri h: 17:00 coperto_pioggia Pioggia Debole 3 2 93 1004 10 O 7.4
Ieri h: 16:30 coperto_pioggia Pioggia Debole 3 2 93 1004 9 O 11.1
Ieri h: 16:00 coperto_pioggia Pioggia Debole 3 2 93 1004 10 O 9.3
Ieri h: 15:30 coperto_pioggia Pioggia Debole 3 2 93 1003 9 O 11.1
Ieri h: 15:00 coperto_pioggia Pioggia Debole 3 2 93 1003 10 O 7.4
Ieri h: 14:30 coperto_pioggia Pioggia Debole 4 2 86 1003 10 O/NO 7.4
Ieri h: 14:00 coperto_pioggia Pioggia Debole 4 2 86 1003 10 O 13
Ieri h: 13:49 coperto_pioggia Pioggia Debole 4 2 86 1003 10 O/NO 13
Ieri h: 13:30 coperto_pioggia Pioggia Debole 3 2 93 1003 10 O 13
Ieri h: 13:15 coperto_pioggia Pioggia Debole 3 2 93 1003 10 O 13
Ieri h: 13:00 coperto_pioggia Pioviggine Leggera 3 2 93 1003 10 O 9.3
Ieri h: 12:30 coperto_pioggia Pioviggine Leggera 3 2 93 1003 9 O 13
Ieri h: 12:00 coperto_pioggia Pioviggine Leggera 3 2 93 1003 8 O 11.1
Ieri h: 11:30 coperto_pioggia Pioggia Debole 3 2 93 1003 9 O 13
Ieri h: 11:14 coperto_pioggia Pioggia Debole 3 2 93 1003 8 O/SO 11.1
Ieri h: 11:00 coperto_pioggia Pioggia Debole 3 2 93 1003 8 O 9.3
Ieri h: 10:35 coperto_pioggia Pioggia Debole 2 1 93 1003 8 O 9.3
Ieri h: 10:30 coperto_pioggia Pioggia Debole 2 1 93 1003 8 O 7.4
Ieri h: 10:00 coperto_pioggia Pioggia Debole 2 1 93 1003 8 O/SO 7.4